[[{"header":{"parameterUnit":"m.s-1","parameterCategory":1,"la1":30.2992,"la2":30.254,"lo1":-89.0895,"lo2":-89.0443,"dy":0.0025,"dx":0.0025,"nx":19,"ny":19,"refTime":"2026-04-30T09:00:00:Z","depth":0,"parameterNumber":2,"parameterNumberName":"U-component_of_WINDS"},"data":[0,0,0,-4.5956,-4.596,-4.611,-4.611,-4.6325,-4.6327,0,0,0,0,0,0,0,0,0,0,0,-4.5929,-4.5931,-4.5956,-4.596,-4.6109,-4.611,-4.6324,-4.6327,0,0,0,0,0,0,0,0,0,0,0,-4.5928,-4.593,-4.5933,-4.5961,-4.6109,-4.611,-4.6324,-4.6202,0,0,0,0,0,0,0,0,0,0,-4.6053,-4.6044,-4.593,-4.5933,-4.5962,-4.6109,-4.611,-4.6196,-4.621,-4.6268,0,-4.6326,0,-4.633,-4.6343,-4.6344,0,0,0,-4.5947,-4.6033,-4.6058,-4.5933,-4.5963,-4.6109,-4.6038,-4.6203,-4.6219,-4.6287,-4.6329,-4.6336,-4.6334,-4.6345,-4.6346,-4.6731,-4.6733,0,0,-4.5939,-4.5964,-4.6047,-4.6069,-4.605,-4.6034,-4.6043,-4.6212,-4.626,-4.633,-4.6341,-4.6338,-4.6346,-4.6348,-4.6729,-4.6732,0,0,0,-4.5924,-4.5959,-4.5979,-4.6061,-4.6086,-4.6038,-4.6049,-4.6252,-4.6257,-4.6343,-4.634,-4.6348,-4.6351,-4.6726,-4.673,-4.6877,0,0,0,-4.5918,-4.595,-4.5977,-4.5994,-4.6084,-4.6172,-4.6086,-4.6245,-4.6263,-4.6339,-4.6348,-4.6353,-4.6723,-4.6728,-4.6867,-4.6943,0,0,0,-4.5913,-4.5949,-4.5977,-4.5995,-4.606,-4.6168,-4.6182,-4.6248,-4.6262,-4.6344,-4.6354,-4.6722,-4.6727,-4.6858,-4.6928,-4.7054,0,0,0,-4.5914,-4.6103,-4.598,-4.6189,-4.6059,-4.6258,-4.6181,-4.6327,-4.6414,-4.6349,-4.6724,-4.6729,-4.6855,-4.6919,-4.7045,-4.7167,-4.7219,0,0,-4.6167,-4.6135,-4.6256,-4.6149,-4.6378,-4.6233,-4.6481,-4.6536,-4.6518,-4.666,-4.6669,-4.687,-4.6927,-4.7052,-4.7498,-4.754,0,0,0,-4.6344,-4.6432,-4.6487,-4.6573,-4.662,-4.6667,-4.6681,-4.6701,-4.682,-4.6598,-4.6946,-4.698,-4.7052,-4.7109,-4.7145,-4.7206,-4.6756,-4.6755,-4.6755,-4.6741,-4.671,-4.6908,-4.6896,-4.698,-4.6992,-4.7057,-4.7085,-4.7028,-4.7111,-4.7155,-4.743,-4.7498,-4.7524,-4.7588,-4.7213,-4.7214,-4.7214,-4.7215,-4.711,-4.7231,-4.7151,-4.7316,-4.7282,-4.7418,-4.7436,-4.7391,-4.7513,-4.7394,-4.7456,-4.7332,-4.7571,-4.7626,-4.7225,-4.7224,-4.7222,-4.7221,-4.722,-4.737,-4.7423,-4.7444,-4.7565,-4.7661,-4.7639,-4.776,-4.7723,-4.7688,-4.7749,-4.7792,-4.7789,-4.7785,-4.7771,-4.7772,-4.7773,-4.7774,-4.7775,-4.7775,-4.7632,-4.7652,-4.776,-4.7826,-4.7876,-4.7937,-4.7949,-4.7997,-4.804,-4.8003,-4.8003,-4.794,-4.7599,-4.7517,-4.779,-4.7787,-4.7785,-4.7784,-4.7783,-4.8026,-4.7931,-4.8099,-4.8149,-4.8223,-4.8321,-4.827,-4.837,-4.8403,-4.8464,-4.8386,-4.8139,-4.8103,-4.8075,-4.8007,-4.839,-4.839,-4.839,-4.839,-4.8248,-4.8225,-4.8389,-4.8472,-4.8548,-4.852,-4.8709,-4.872,-4.8715,-4.8734,-4.8671,-4.8576,-4.8548,-4.8529,-4.849,-4.8427,-4.8908,-4.8909,-4.8909,-4.849,-4.8472,-4.8643,-4.8639,-4.8693,-4.874,-4.8918,-4.9015,-4.8989,-4.893,-4.8748,-4.8726,-4.8572,-4.8522,-4.8464,-4.8405,-4.8286,0,0]},{"header":{"parameterUnit":"m.s-1","parameterCategory":1,"la1":30.2992,"la2":30.254,"lo1":-89.0895,"lo2":-89.0443,"dy":0.0025,"dx":0.0025,"nx":19,"ny":19,"refTime":"2026-04-30T09:00:00:Z","depth":0,"parameterNumber":3,"parameterNumberName":"V-component_of_WINDS"},"data":[0,0,0,-5.1393,-5.1394,-5.1405,-5.1405,-5.1439,-5.144,0,0,0,0,0,0,0,0,0,0,0,-5.1404,-5.1405,-5.1393,-5.1394,-5.1405,-5.1405,-5.1439,-5.144,0,0,0,0,0,0,0,0,0,0,0,-5.1404,-5.1405,-5.1406,-5.1394,-5.1405,-5.1405,-5.1439,-5.1423,0,0,0,0,0,0,0,0,0,0,-5.1408,-5.1433,-5.1404,-5.1406,-5.1394,-5.1405,-5.1405,-5.1422,-5.1424,-5.1443,0,-5.1466,0,-5.1454,-5.1443,-5.1444,0,0,0,-5.1383,-5.1432,-5.1422,-5.1406,-5.1394,-5.1405,-5.1397,-5.1423,-5.1425,-5.1446,-5.1466,-5.1467,-5.1454,-5.1444,-5.1444,-5.1593,-5.1595,0,0,-5.1382,-5.1414,-5.142,-5.1424,-5.1426,-5.1397,-5.1397,-5.1424,-5.1447,-5.1466,-5.1467,-5.1455,-5.1444,-5.1445,-5.1592,-5.1594,0,0,0,-5.1388,-5.1414,-5.1403,-5.1423,-5.1424,-5.1397,-5.1398,-5.1446,-5.144,-5.1467,-5.1455,-5.1445,-5.1445,-5.1591,-5.1593,-5.1682,0,0,0,-5.1387,-5.1417,-5.1403,-5.1422,-5.1424,-5.1436,-5.142,-5.1438,-5.144,-5.1455,-5.1445,-5.1446,-5.159,-5.1592,-5.1676,-5.1718,0,0,0,-5.1398,-5.1418,-5.1425,-5.1424,-5.143,-5.1434,-5.1429,-5.1438,-5.1433,-5.1444,-5.1446,-5.1589,-5.1591,-5.1672,-5.171,-5.1765,0,0,0,-5.142,-5.1505,-5.1427,-5.1517,-5.143,-5.149,-5.1429,-5.1472,-5.1492,-5.1445,-5.159,-5.1593,-5.167,-5.1706,-5.176,-5.1815,-5.1842,0,0,-5.1545,-5.1521,-5.1572,-5.1502,-5.1584,-5.1486,-5.158,-5.1569,-5.1541,-5.1577,-5.158,-5.1678,-5.171,-5.1764,-5.1982,-5.2004,0,0,0,-5.1622,-5.1658,-5.1673,-5.1693,-5.1687,-5.1683,-5.1654,-5.1649,-5.1678,-5.1567,-5.1712,-5.173,-5.1761,-5.1785,-5.1803,-5.1826,-5.1606,-5.1606,-5.1605,-5.1844,-5.1803,-5.1882,-5.1842,-5.1862,-5.183,-5.1841,-5.1829,-5.1783,-5.1818,-5.1828,-5.1966,-5.1996,-5.2009,-5.2033,-5.1855,-5.1856,-5.1856,-5.1856,-5.2021,-5.2065,-5.2,-5.2053,-5.2008,-5.2052,-5.2023,-5.1988,-5.2021,-5.1955,-5.198,-5.191,-5.2034,-5.2053,-5.1862,-5.1861,-5.186,-5.186,-5.1859,-5.2161,-5.2174,-5.2167,-5.2189,-5.2211,-5.2167,-5.22,-5.2159,-5.212,-5.2144,-5.2148,-5.2147,-5.2138,-5.215,-5.215,-5.2151,-5.2151,-5.2151,-5.2152,-5.2308,-5.2296,-5.233,-5.2328,-5.2333,-5.2336,-5.2302,-5.2306,-5.2299,-5.2266,-5.2265,-5.2214,-5.2055,-5.2014,-5.2159,-5.2157,-5.2157,-5.2156,-5.2155,-5.2501,-5.2449,-5.2502,-5.2508,-5.2499,-5.2522,-5.2468,-5.2479,-5.2476,-5.2493,-5.2436,-5.2325,-5.2298,-5.2283,-5.2249,-5.2446,-5.2446,-5.2446,-5.2446,-5.2617,-5.2599,-5.2641,-5.2652,-5.2658,-5.2614,-5.2671,-5.2644,-5.2609,-5.2603,-5.2569,-5.2521,-5.2508,-5.2488,-5.2469,-5.2437,-5.2676,-5.2677,-5.2677,-5.2732,-5.2712,-5.277,-5.2734,-5.2724,-5.2715,-5.2766,-5.278,-5.2729,-5.2685,-5.2598,-5.2588,-5.251,-5.2487,-5.2442,-5.2413,-5.2353,0,0]}]]